Nattehimlen netop nu: Lyriderne 16-28.april 2019, maximum 21-23.april med 20 stjerneskud i timen, stjerneskud med lange vedholdende haler, Retning Vega en af nattehimlens mest lysende stjerner, fra Kometen Thatcher. Næste Eta-Aquariderne 19/4-28/5-2019, maximum 4-5.maj med 30 stjerneskud i timen, stjerneskud med lange vedholdende haler, mod syd stjernebillede Vandmanden, ses i timerne før daggry..


Vejr3>N more information Vejr3>N


Vejr3>V more information Vejr3>V


3 timers nedbørs radar more information rain snow radar


besøg nogle andre vejrsider:

Template dokumentation
og downloads

And another site


Select another period ( hide this area )

enheder periode Custom range Directly to
metrisk engelsk både
dagens ugenligt månedlig årligt
use both date-selectors for a custom range
forgående dag
With this date

WeatherUnderground graphs for this period ( click here )


dagens sammenfatning af fredag 19 april 2019
tid Temp. ( °C ) Dew pt. ( °C ) vind ( km/h ) fra vindstød ( km/h ) lufttryk ( hPa ) Humid.( % ) Rainrate ( cm ) solenergi ( W/m2 )
høj14,2 3,7 18,5 øst ( 447/804 ) 15,6 1036,0 88 - 599
gennemsnit6,4 1,9 6,5 øst #47/123 4,5 1035,2 75 - 265 #61/123
lav2,4 0,2 -   0,0 1034,7 43 -  
dagens Tabular details for fredag 19 april 2019
tid Temp. ( °C ) Dew pt. ( °C ) vind ( km/h ) fra vindstød ( km/h ) lufttryk ( hPa ) Humid.( % ) Rainrate ( cm ) solenergi ( W/m2 )
00:00 6,4 2,9 4,8 øst 8,0 1034,7 78 - -
00:23 5,8 2,8 8,0 ønø 4,5 1034,9 81 - -
00:25 6,1 2,8 4,8 øst 8,0 1034,8 80 - -
00:33 5,6 2,8 6,4 øst 4,3 1034,9 82 - -
00:38 5,6 2,8 4,8 øst 8,0 1034,9 82 - -
00:43 5,5 2,5 7,4 øst 5,8 1034,9 81 - -
00:45 5,5 2,5 7,4 øst 5,8 1034,9 81 - -
01:00 5,5 2,5 4,8 øst 8,0 1034,9 81 - -
01:15 5,5 2,5 4,8 øst 8,0 1034,9 81 - -
01:24 5,0 2,3 5,6 2,7 1035,0 83 - -
01:29 4,9 2,3 1,6 0,2 1035,1 83 - -
01:30 4,9 2,3 1,9 0,8 1035,1 83 - -
01:39 4,8 2,3 1,9   1035,1 84 - -
01:44 4,9 2,8 4,8 nnø 2,1 1035,1 86 - -
01:45 4,9 2,8 1,6 nnø 4,8 1035,1 86 - -
01:54 5,0 2,5 4,8 nnø 3,1 1035,0 84 - -
01:59 4,9 2,4 6,4 4,2 1035,0 84 - -
02:00 4,9 2,4 3,2 6,4 1035,0 84 - -
02:14 4,7 2,4 1,6 3,2 1035,0 85 - -
02:15 4,7 2,2   stille   1035,0 84 - -
02:24 4,7 2,3 1,6   1035,0 85 - -
02:29 4,3 1,9 5,6 ønø 2,7 1035,0 84 - -
02:30 4,3 1,9 1,6 4,8 1034,9 84 - -
02:44 4,1 1,8 5,6 ønø 3,1 1034,9 85 - -
02:45 4,2 1,9 3,2 ønø 4,8 1034,9 85 - -
02:54 3,9 1,7 1,9 ønø   1034,9 85 - -
02:59 3,9 1,6   stille   1034,8 85 - -
03:00 3,9 1,6   stille   1034,8 85 - -
03:09 3,7 1,4   stille   1034,9 85 - -
03:14 3,7 1,2   stille   1034,9 84 - -
03:19 3,6 1,1   stille   1035,0 84 - -
03:24 3,4 0,9   stille   1035,0 84 - -
03:29 3,3 1,1   stille   1034,9 85 - -
03:34 3,3 1,1 1,6 ønø 0,2 1034,9 85 - -
03:39 3,3 1,1 1,9 ønø   1034,9 85 - -
03:44 3,4 1,1 1,9 ønø 0,2 1034,9 85 - -
03:49 3,4 1,1 1,9 ønø 0,2 1034,9 85 - -
03:54 3,4 0,9 1,9 ønø 0,2 1034,9 84 - -
03:59 3,4 0,9 3,7 ønø 1,1 1034,9 84 - -
04:04 3,4 0,9 3,2 ønø 0,6 1035,0 84 - -
04:09 3,4 0,9 1,9 ønø   1035,0 84 - -
04:14 3,3 0,9   stille   1035,0 84 - -
04:19 3,2 0,8   stille   1035,0 84 - -
04:24 3,2 0,7 1,9 ønø 0,3 1035,0 84 - -
04:29 3,1 0,8   stille   1035,0 85 - -
04:34 3,1 0,8   stille   1035,0 85 - -
04:39 3,1 0,8 3,2 ønø 0,6 1034,9 85 - -
04:44 3,0 0,6 5,6 ønø 3,5 1034,9 84 - -
04:49 2,9 0,5 3,7 ønø 1,3 1034,9 84 - -
04:54 2,9 0,6   stille   1034,9 85 - -
04:59 2,9 0,6 3,7 ønø 2,6 1034,9 85 - -
05:04 2,8 0,6 3,7 ønø 0,2 1034,9 85 - -
05:09 2,7 0,3 3,7 ønø 2,3 1034,9 84 - -
05:14 2,6 0,3 4,8 ønø 2,7 1034,9 85 - -
05:19 2,5 0,2 5,6 ønø 4,5 1034,9 85 - -
05:24 2,4 0,3 5,6 ønø 4,5 1034,9 86 - -
05:29 2,4 0,3 5,6 ønø 4,8 1035,0 86 - -
05:34 2,4 0,3 5,6 ønø 4,0 1035,0 86 - -
05:39 2,5 0,6 5,6 ønø 3,9 1035,0 87 - -
05:44 2,7 0,7 5,6 ønø 4,0 1035,0 87 - -
05:49 2,8 0,7 5,6 ønø 3,9 1035,0 86 - -
05:54 2,8 0,7 5,6 ønø 3,2 1035,0 86 - -
05:59 2,8 0,6   stille   1035,0 85 - 5
06:04 2,8 0,6   stille   1035,0 85 - 7
06:09 2,8 0,6 5,6 ønø 3,2 1035,1 85 - 9
06:14 2,8 0,6 5,6 øst 3,7 1035,1 85 - 11
06:19 2,8 0,6 5,6 øst 4,3 1035,1 85 - 12
06:24 2,8 0,5 6,4 øst 5,8 1035,1 85 - 14
06:29 2,8 0,5 5,6 øst 3,9 1035,1 85 - 16
06:34 2,7 0,4 3,7 øst 2,9 1035,1 85 - 18
06:39 2,7 0,6 3,7 øst 2,9 1035,1 86 - 19
06:44 2,7 0,8 3,7 øst 2,9 1035,2 87 - 21
06:49 2,7 0,6 5,6 øst 3,5 1035,2 86 - 39
06:54 2,7 0,8 5,6 øst 3,4 1035,2 87 - 40
06:59 2,8 0,8 5,6 øst 4,3 1035,3 87 - 49
07:04 3,1 1,3 5,6 øst 3,5 1035,3 88 - 86
07:09 3,5 1,7 3,7 øst 2,3 1035,4 88 - 95
07:14 4,2 2,1   stille   1035,4 86 - 100
07:19 4,8 2,3   stille   1035,4 84 - 107
07:24 5,5 2,7 5,6 øst 3,4 1035,4 82 - 109
07:29 6,1 2,5 5,6 øst 3,4 1035,5 78 - 109
07:34 6,7 2,7 5,6 øst 3,7 1035,5 76 - 113
07:39 7,3 2,8 1,9 ønø 0,3 1035,5 73 - 125
07:44 7,8 3,3 3,7 ønø 2,3 1035,5 73 - 144
07:49 8,3 3,1 3,7 ønø 2,1 1035,5 70 - 174
07:54 8,7 3,1 5,6 øst 2,9 1035,5 68 - 199
07:59 8,9 2,9 5,6 øst 3,9 1035,5 66 - 211
08:04 9,2 3,4 5,6 ønø 3,4 1035,5 67 - 220
08:09 9,5 3,2 8,0 ønø 6,4 1035,5 65 - 213
08:14 9,8 3,3 9,3 øst 6,6 1035,5 64 - 204
08:19 10,1 3,1 12,9 øst 7,1 1035,6 62 - 220
08:24 10,2 3,0 11,3 øst 7,4 1035,5 61 - 251
08:29 10,4 2,9 16,7 øsø 9,7 1035,5 60 - 274
08:34 10,4 2,7 16,7 øst 9,0 1035,5 59 - 279
08:39 10,3 2,6 16,7 øsø 11,1 1035,5 59 - 285
08:44 10,4 2,7 16,7 øst 11,9 1035,5 59 - 287
08:49 10,6 2,9 17,7 øst 15,6 1035,6 59 - 290
08:54 10,6 2,9 17,7 øst 10,3 1035,5 59 - 290
08:59 10,8 3,1 18,5 øst 13,4 1035,6 59 - 294
09:04 10,8 2,8 9,7 ønø 7,2 1035,6 58 - 299
09:09 10,9 3,2 9,3 øst 6,0 1035,7 59 - 304
09:14 11,2 3,4 14,8 ønø 11,3 1035,7 59 - 315
09:19 11,3 3,3 14,8 øst 7,9 1035,7 58 - 327
09:24 11,4 3,2 14,8 øst 9,8 1035,8 57 - 345
09:29 11,7 3,7 18,5 ønø 12,1 1035,7 58 - 364
09:34 11,8 3,0 13,0 øst 8,7 1035,7 55 - 385
09:39 12,0 3,7 14,8 øst 6,4 1035,7 57 - 408
09:44 12,2 3,4 11,1 øst 7,4 1035,7 55 - 431
09:49 12,4 3,4 13,0 øst 8,8 1035,8 54 - 457
09:54 12,7 3,3 14,5 øsø 10,0 1035,9 53 - 473
09:59 12,9 3,1 16,7 øst 12,4 1035,9 51 - 485
10:04 13,2 3,3 11,1 øst 7,9 1036,0 51 - 499
10:09 13,4 2,9 14,8 øsø 8,7 1035,9 49 - 510
10:14 13,5 2,7 16,7 øst 11,7 1035,9 48 - 520
10:19 13,6 2,7 14,8 øsø 10,8 1036,0 48 - 529
10:24 13,6 2,5 14,5 ønø 10,0 1035,9 47 - 538
10:29 13,7 2,3 16,7 øsø 10,5 1036,0 46 - 548
10:34 13,8 2,7 6,4 2,6 1036,0 47 - 555
10:39 13,9 2,4 14,8 øst 9,7 1036,0 46 - 564
10:44 14,0 2,2 16,1 øst 9,5 1036,0 45 - 575
10:49 14,1 2,0 14,8 øst 11,3 1036,0 44 - 584
10:54 14,2 2,8 11,3 øst 9,2 1036,0 46 - 594
10:59 14,2 1,8 16,7 ønø 7,4 1035,9 43 - 599
dagens sammenfatning af fredag 19 april 2019
tid Temp. ( °C ) Dew pt. ( °C ) vind ( km/h ) fra vindstød ( km/h ) lufttryk ( hPa ) Humid.( % ) Rainrate ( cm ) solenergi ( W/m2 )
høj14,2 3,7 18,5 øst ( 447/804 ) 15,6 1036,0 88 - 599
gennemsnit6,4 1,9 6,5 øst #47/123 4,5 1035,2 75 - 265 #61/123
lav2,4 0,2 -   0,0 1034,7 43 -  
dagens Tabular details for fredag 19 april 2019
tid Temp. ( °C ) Dew pt. ( °C ) vind ( km/h ) fra vindstød ( km/h ) lufttryk ( hPa ) Humid.( % ) Rainrate ( cm ) solenergi ( W/m2 )
00:00 6,4 2,9 4,8 øst 8,0 1034,7 78 - -
00:23 5,8 2,8 8,0 ønø 4,5 1034,9 81 - -
00:25 6,1 2,8 4,8 øst 8,0 1034,8 80 - -
00:33 5,6 2,8 6,4 øst 4,3 1034,9 82 - -
00:38 5,6 2,8 4,8 øst 8,0 1034,9 82 - -
00:43 5,5 2,5 7,4 øst 5,8 1034,9 81 - -
00:45 5,5 2,5 7,4 øst 5,8 1034,9 81 - -
01:00 5,5 2,5 4,8 øst 8,0 1034,9 81 - -
01:15 5,5 2,5 4,8 øst 8,0 1034,9 81 - -
01:24 5,0 2,3 5,6 2,7 1035,0 83 - -
01:29 4,9 2,3 1,6 0,2 1035,1 83 - -
01:30 4,9 2,3 1,9 0,8 1035,1 83 - -
01:39 4,8 2,3 1,9   1035,1 84 - -
01:44 4,9 2,8 4,8 nnø 2,1 1035,1 86 - -
01:45 4,9 2,8 1,6 nnø 4,8 1035,1 86 - -
01:54 5,0 2,5 4,8 nnø 3,1 1035,0 84 - -
01:59 4,9 2,4 6,4 4,2 1035,0 84 - -
02:00 4,9 2,4 3,2 6,4 1035,0 84 - -
02:14 4,7 2,4 1,6 3,2 1035,0 85 - -
02:15 4,7 2,2   stille   1035,0 84 - -
02:24 4,7 2,3 1,6   1035,0 85 - -
02:29 4,3 1,9 5,6 ønø 2,7 1035,0 84 - -
02:30 4,3 1,9 1,6 4,8 1034,9 84 - -
02:44 4,1 1,8 5,6 ønø 3,1 1034,9 85 - -
02:45 4,2 1,9 3,2 ønø 4,8 1034,9 85 - -
02:54 3,9 1,7 1,9 ønø   1034,9 85 - -
02:59 3,9 1,6   stille   1034,8 85 - -
03:00 3,9 1,6   stille   1034,8 85 - -
03:09 3,7 1,4   stille   1034,9 85 - -
03:14 3,7 1,2   stille   1034,9 84 - -
03:19 3,6 1,1   stille   1035,0 84 - -
03:24 3,4 0,9   stille   1035,0 84 - -
03:29 3,3 1,1   stille   1034,9 85 - -
03:34 3,3 1,1 1,6 ønø 0,2 1034,9 85 - -
03:39 3,3 1,1 1,9 ønø   1034,9 85 - -
03:44 3,4 1,1 1,9 ønø 0,2 1034,9 85 - -
03:49 3,4 1,1 1,9 ønø 0,2 1034,9 85 - -
03:54 3,4 0,9 1,9 ønø 0,2 1034,9 84 - -
03:59 3,4 0,9 3,7 ønø 1,1 1034,9 84 - -
04:04 3,4 0,9 3,2 ønø 0,6 1035,0 84 - -
04:09 3,4 0,9 1,9 ønø   1035,0 84 - -
04:14 3,3 0,9   stille   1035,0 84 - -
04:19 3,2 0,8   stille   1035,0 84 - -
04:24 3,2 0,7 1,9 ønø 0,3 1035,0 84 - -
04:29 3,1 0,8   stille   1035,0 85 - -
04:34 3,1 0,8   stille   1035,0 85 - -
04:39 3,1 0,8 3,2 ønø 0,6 1034,9 85 - -
04:44 3,0 0,6 5,6 ønø 3,5 1034,9 84 - -
04:49 2,9 0,5 3,7 ønø 1,3 1034,9 84 - -
04:54 2,9 0,6   stille   1034,9 85 - -
04:59 2,9 0,6 3,7 ønø 2,6 1034,9 85 - -
05:04 2,8 0,6 3,7 ønø 0,2 1034,9 85 - -
05:09 2,7 0,3 3,7 ønø 2,3 1034,9 84 - -
05:14 2,6 0,3 4,8 ønø 2,7 1034,9 85 - -
05:19 2,5 0,2 5,6 ønø 4,5 1034,9 85 - -
05:24 2,4 0,3 5,6 ønø 4,5 1034,9 86 - -
05:29 2,4 0,3 5,6 ønø 4,8 1035,0 86 - -
05:34 2,4 0,3 5,6 ønø 4,0 1035,0 86 - -
05:39 2,5 0,6 5,6 ønø 3,9 1035,0 87 - -
05:44 2,7 0,7 5,6 ønø 4,0 1035,0 87 - -
05:49 2,8 0,7 5,6 ønø 3,9 1035,0 86 - -
05:54 2,8 0,7 5,6 ønø 3,2 1035,0 86 - -
05:59 2,8 0,6   stille   1035,0 85 - 5
06:04 2,8 0,6   stille   1035,0 85 - 7
06:09 2,8 0,6 5,6 ønø 3,2 1035,1 85 - 9
06:14 2,8 0,6 5,6 øst 3,7 1035,1 85 - 11
06:19 2,8 0,6 5,6 øst 4,3 1035,1 85 - 12
06:24 2,8 0,5 6,4 øst 5,8 1035,1 85 - 14
06:29 2,8 0,5 5,6 øst 3,9 1035,1 85 - 16
06:34 2,7 0,4 3,7 øst 2,9 1035,1 85 - 18
06:39 2,7 0,6 3,7 øst 2,9 1035,1 86 - 19
06:44 2,7 0,8 3,7 øst 2,9 1035,2 87 - 21
06:49 2,7 0,6 5,6 øst 3,5 1035,2 86 - 39
06:54 2,7 0,8 5,6 øst 3,4 1035,2 87 - 40
06:59 2,8 0,8 5,6 øst 4,3 1035,3 87 - 49
07:04 3,1 1,3 5,6 øst 3,5 1035,3 88 - 86
07:09 3,5 1,7 3,7 øst 2,3 1035,4 88 - 95
07:14 4,2 2,1   stille   1035,4 86 - 100
07:19 4,8 2,3   stille   1035,4 84 - 107
07:24 5,5 2,7 5,6 øst 3,4 1035,4 82 - 109
07:29 6,1 2,5 5,6 øst 3,4 1035,5 78 - 109
07:34 6,7 2,7 5,6 øst 3,7 1035,5 76 - 113
07:39 7,3 2,8 1,9 ønø 0,3 1035,5 73 - 125
07:44 7,8 3,3 3,7 ønø 2,3 1035,5 73 - 144
07:49 8,3 3,1 3,7 ønø 2,1 1035,5 70 - 174
07:54 8,7 3,1 5,6 øst 2,9 1035,5 68 - 199
07:59 8,9 2,9 5,6 øst 3,9 1035,5 66 - 211
08:04 9,2 3,4 5,6 ønø 3,4 1035,5 67 - 220
08:09 9,5 3,2 8,0 ønø 6,4 1035,5 65 - 213
08:14 9,8 3,3 9,3 øst 6,6 1035,5 64 - 204
08:19 10,1 3,1 12,9 øst 7,1 1035,6 62 - 220
08:24 10,2 3,0 11,3 øst 7,4 1035,5 61 - 251
08:29 10,4 2,9 16,7 øsø 9,7 1035,5 60 - 274
08:34 10,4 2,7 16,7 øst 9,0 1035,5 59 - 279
08:39 10,3 2,6 16,7 øsø 11,1 1035,5 59 - 285
08:44 10,4 2,7 16,7 øst 11,9 1035,5 59 - 287
08:49 10,6 2,9 17,7 øst 15,6 1035,6 59 - 290
08:54 10,6 2,9 17,7 øst 10,3 1035,5 59 - 290
08:59 10,8 3,1 18,5 øst 13,4 1035,6 59 - 294
09:04 10,8 2,8 9,7 ønø 7,2 1035,6 58 - 299
09:09 10,9 3,2 9,3 øst 6,0 1035,7 59 - 304
09:14 11,2 3,4 14,8 ønø 11,3 1035,7 59 - 315
09:19 11,3 3,3 14,8 øst 7,9 1035,7 58 - 327
09:24 11,4 3,2 14,8 øst 9,8 1035,8 57 - 345
09:29 11,7 3,7 18,5 ønø 12,1 1035,7 58 - 364
09:34 11,8 3,0 13,0 øst 8,7 1035,7 55 - 385
09:39 12,0 3,7 14,8 øst 6,4 1035,7 57 - 408
09:44 12,2 3,4 11,1 øst 7,4 1035,7 55 - 431
09:49 12,4 3,4 13,0 øst 8,8 1035,8 54 - 457
09:54 12,7 3,3 14,5 øsø 10,0 1035,9 53 - 473
09:59 12,9 3,1 16,7 øst 12,4 1035,9 51 - 485
10:04 13,2 3,3 11,1 øst 7,9 1036,0 51 - 499
10:09 13,4 2,9 14,8 øsø 8,7 1035,9 49 - 510
10:14 13,5 2,7 16,7 øst 11,7 1035,9 48 - 520
10:19 13,6 2,7 14,8 øsø 10,8 1036,0 48 - 529
10:24 13,6 2,5 14,5 ønø 10,0 1035,9 47 - 538
10:29 13,7 2,3 16,7 øsø 10,5 1036,0 46 - 548
10:34 13,8 2,7 6,4 2,6 1036,0 47 - 555
10:39 13,9 2,4 14,8 øst 9,7 1036,0 46 - 564
10:44 14,0 2,2 16,1 øst 9,5 1036,0 45 - 575
10:49 14,1 2,0 14,8 øst 11,3 1036,0 44 - 584
10:54 14,2 2,8 11,3 øst 9,2 1036,0 46 - 594
10:59 14,2 1,8 16,7 ønø 7,4 1035,9 43 - 599

Download your copy of this data-set  here

Our weather-data as stored at Weather Underground. script udviklet af Jim McMurry. tilpasset til dette template Leuven-Template.eu

du finder også vores vejrinformationer på:

European Weather Network

Weather Underground

AWEKAS

WeatherlinkIP

Citizen Weather Observer Program (CWOP)

udstyr som vi anvender:

vejrstation
Davis VP2+

vejrprogram
Weather Display

vejrserver
Dell E6400

hjemmeside host
Webhosting.dk

Davis VP2+

Weather Display

Dell E6400

Webhosting.dk